Date String (YYYY-MM-DD hh:mm:ss) UTC,Instrument flags,absolute air pressure of the measurement (hPa),sample flow rate (lpm),inlet stack bypass flow (lpm),air temperature of the measurement (°C),ambient temperature measured by the external sensor (°C),aerosol sample conditioner tube jacket temperature (°C),OPC LED temperature (°C),internal box temperature (°C),relative humidity of the measurement (%),span deviation,mass concentration of particles derived from Lorenz-Mie calculation of OPC scattering (μg/m³),mass concentration of particles derived from Lorenz-Mie calculation of OPC scattering (μg/m³),mass concentration of particles derived from Lorenz-Mie calculation of OPC scattering (μg/m³)
DateTimeUTC,F1_M11,P_M11,Q1_M11,Q2_M11,T1_M11,T2_M11,T3_M11,T4_M11,T5_M11,U1_M11,ZSPAN_M11,X0_M11,X2_M11,X1_M11
2024-06-07 20:00:00,SystemResetWarning,0826.6,5.00,000.00,028.9,028.6,000.0,037.0,030.8,017.0,0000.0,0012.08,0003.28,0001.84
2024-06-07 20:01:00,SystemResetWarning,0826.7,5.00,000.00,029.0,028.7,000.0,037.0,030.8,017.1,0000.0,0012.66,0003.31,0001.84
2024-06-07 20:02:00,SystemResetWarning,0826.6,4.98,000.00,028.9,027.4,000.0,037.1,030.3,017.3,0000.0,0013.27,0003.27,0001.84
2024-06-07 20:03:00,SystemResetWarning,0826.7,5.02,000.00,028.6,025.6,000.0,037.1,029.5,017.2,0000.0,0013.23,0003.23,0001.83
2024-06-07 20:04:00,SystemResetWarning,0826.7,5.00,000.00,028.4,026.0,000.0,037.1,029.5,017.8,0000.0,0013.41,0003.24,0001.83
2024-06-07 20:05:00,SystemResetWarning,0826.8,5.00,000.00,028.5,026.6,000.0,037.0,029.8,017.8,0000.0,0013.49,0003.19,0001.82
2024-06-07 20:06:00,SystemResetWarning,0826.9,5.00,000.00,028.5,027.0,000.0,037.0,030.1,018.2,0000.0,0013.63,0003.21,0001.81
2024-06-07 20:07:00,SystemResetWarning,0826.9,4.99,000.00,028.6,027.4,000.0,036.9,030.3,018.3,0000.0,0014.22,0003.24,0001.81
2024-06-07 20:08:00,SystemResetWarning,0826.9,4.99,000.00,028.7,027.8,000.0,036.9,030.4,017.8,0000.0,0013.87,0003.25,0001.80
2024-06-07 20:09:00,SystemResetWarning,0826.8,5.00,000.00,028.7,028.1,000.0,036.9,030.6,017.4,0000.0,0013.42,0003.24,0001.79
2024-06-07 20:10:00,SystemResetWarning,0826.8,5.01,000.00,028.8,028.4,000.0,037.0,030.7,017.5,0000.0,0013.91,0003.28,0001.81
2024-06-07 20:11:00,SystemResetWarning,0826.9,5.01,000.00,028.9,028.6,000.0,037.0,030.8,017.2,0000.0,0014.30,0003.34,0001.84
2024-06-07 20:12:00,SystemResetWarning,0826.9,4.99,000.00,028.9,027.6,000.0,037.1,030.2,017.6,0000.0,0013.91,0003.36,0001.83
2024-06-07 20:13:00,SystemResetWarning,0826.9,4.99,000.00,028.5,025.5,000.0,037.1,029.3,017.6,0000.0,0014.09,0003.38,0001.83
2024-06-07 20:14:00,SystemResetWarning,0826.9,5.02,000.00,028.3,025.7,000.0,037.1,029.3,017.8,0000.0,0013.49,0003.37,0001.85
2024-06-07 20:15:00,SystemResetWarning,0826.9,5.00,000.00,028.4,026.3,000.0,037.0,029.7,018.0,0000.0,0015.16,0003.40,0001.86
2024-06-07 20:16:00,SystemResetWarning,0826.9,5.00,000.00,028.4,026.8,000.0,036.9,029.9,017.8,0000.0,0014.93,0003.41,0001.86
2024-06-07 20:17:00,SystemResetWarning,0827.1,5.01,000.00,028.5,027.2,000.0,036.9,030.1,018.7,0000.0,0014.82,0003.41,0001.87
2024-06-07 20:18:00,SystemResetWarning,0827.0,5.00,000.00,028.5,027.6,000.0,036.9,030.3,019.5,0000.0,0015.00,0003.39,0001.89
2024-06-07 20:19:00,SystemResetWarning,0827.0,5.00,000.00,028.6,027.9,000.0,036.9,030.4,019.7,0000.0,0015.69,0003.40,0001.89
2024-06-07 20:20:00,SystemResetWarning,0827.1,5.00,000.00,028.7,028.2,000.0,036.9,030.6,019.9,0000.0,0019.54,0003.46,0001.88
2024-06-07 20:21:00,SystemResetWarning,0827.0,5.00,000.00,028.8,028.4,000.0,036.9,030.7,019.9,0000.0,0020.48,0003.53,0001.87
2024-06-07 20:22:00,SystemResetWarning,0827.1,5.01,000.00,028.9,028.6,000.0,037.0,030.8,019.5,0000.0,0021.06,0003.54,0001.83
2024-06-07 20:23:00,SystemResetWarning,0827.2,5.00,000.00,029.0,028.8,000.0,037.0,030.9,019.3,0000.0,0022.17,0003.51,0001.80
2024-06-07 20:24:00,SystemResetWarning,0827.2,4.98,000.00,029.0,028.3,000.0,037.1,030.6,019.1,0000.0,0022.36,0003.47,0001.79
2024-06-07 20:25:00,SystemResetWarning,0827.1,5.00,000.00,028.7,025.9,000.0,037.1,029.5,019.5,0000.0,0022.70,0003.53,0001.76
2024-06-07 20:26:00,SystemResetWarning,0827.1,5.02,000.00,028.4,025.3,000.0,037.1,029.2,020.0,0000.0,0022.65,0003.57,0001.73
2024-06-07 20:27:00,SystemResetWarning,0827.2,4.99,000.00,028.4,026.0,000.0,037.0,029.5,020.4,0000.0,0023.33,0003.56,0001.70
2024-06-07 20:28:00,SystemResetWarning,0827.2,4.99,000.00,028.4,026.5,000.0,036.9,029.8,020.4,0000.0,0023.34,0003.59,0001.66
2024-06-07 20:29:00,SystemResetWarning,0827.2,5.01,000.00,028.4,026.9,000.0,036.9,030.0,020.1,0000.0,0023.37,0003.58,0001.62
2024-06-07 20:30:00,SystemResetWarning,0827.2,5.00,000.00,028.5,027.3,000.0,036.9,030.2,020.2,0000.0,0022.69,0003.55,0001.59
2024-06-07 20:31:00,SystemResetWarning,0827.2,5.01,000.00,028.6,027.7,000.0,036.9,030.4,019.6,0000.0,0019.50,0003.50,0001.57
2024-06-07 20:32:00,SystemResetWarning,0827.4,4.99,000.00,028.7,028.0,000.0,036.9,030.5,019.6,0000.0,0017.74,0003.41,0001.53
2024-06-07 20:33:00,SystemResetWarning,0827.4,5.00,000.00,028.7,028.2,000.0,036.9,030.6,019.4,0000.0,0016.55,0003.32,0001.50
2024-06-07 20:34:00,SystemResetWarning,0827.4,5.00,000.00,028.8,028.4,000.0,037.0,030.7,019.3,0000.0,0016.13,0003.28,0001.49
2024-06-07 20:35:00,SystemResetWarning,0827.4,5.00,000.00,028.9,028.6,000.0,037.0,030.8,019.2,0000.0,0016.32,0003.23,0001.47
2024-06-07 20:36:00,SystemResetWarning,0827.4,5.00,000.00,029.0,028.8,000.0,037.0,030.9,019.0,0000.0,0015.26,0003.14,0001.45
2024-06-07 20:37:00,SystemResetWarning,0827.6,5.00,000.00,029.1,028.9,000.0,037.1,031.0,019.1,0000.0,0014.19,0003.04,0001.45
2024-06-07 20:38:00,SystemResetWarning,0827.4,4.99,000.00,029.1,028.0,000.0,037.2,030.6,019.1,0000.0,0012.34,0003.01,0001.45
2024-06-07 20:39:00,SystemResetWarning,0827.4,4.99,000.00,028.7,025.8,000.0,037.2,029.5,019.3,0000.0,0012.11,0002.95,0001.45
2024-06-07 20:40:00,SystemResetWarning,0827.4,5.02,000.00,028.5,025.5,000.0,037.2,029.3,020.0,0000.0,0012.16,0002.89,0001.46
2024-06-07 20:41:00,SystemResetWarning,0827.4,4.99,000.00,028.4,026.1,000.0,037.1,029.6,020.2,0000.0,0011.74,0002.82,0001.45
2024-06-07 20:42:00,SystemResetWarning,0827.4,5.00,000.00,028.5,026.5,000.0,037.0,029.8,019.6,0000.0,0011.84,0002.75,0001.45
2024-06-07 20:43:00,SystemResetWarning,0827.3,5.01,000.00,028.5,027.0,000.0,037.0,030.1,019.6,0000.0,0011.06,0002.70,0001.48
2024-06-07 20:44:00,SystemResetWarning,0827.3,5.01,000.00,028.6,027.4,000.0,036.9,030.3,018.7,0000.0,0010.70,0002.64,0001.50
2024-06-07 20:45:00,SystemResetWarning,0827.4,5.00,000.00,028.7,027.7,000.0,036.9,030.4,019.0,0000.0,0010.05,0002.64,0001.51
2024-06-07 20:46:00,SystemResetWarning,0827.4,4.99,000.00,028.8,028.0,000.0,036.9,030.6,019.0,0000.0,0008.80,0002.66,0001.53
2024-06-07 20:47:00,SystemResetWarning,0827.4,4.99,000.00,028.8,028.2,000.0,036.9,030.7,019.4,0000.0,0008.69,0002.70,0001.54
2024-06-07 20:48:00,SystemResetWarning,0827.4,5.01,000.00,028.9,028.4,000.0,037.0,030.8,019.1,0000.0,0008.74,0002.72,0001.54
2024-06-07 20:49:00,SystemResetWarning,0827.3,5.01,000.00,029.0,028.6,000.0,037.0,030.9,019.4,0000.0,0008.65,0002.74,0001.55
2024-06-07 20:50:00,SystemResetWarning,0827.3,4.99,000.00,029.1,028.8,000.0,037.0,031.0,019.1,0000.0,0008.17,0002.68,0001.54
2024-06-07 20:51:00,SystemResetWarning,0827.2,4.99,000.00,029.2,028.5,000.0,037.1,030.9,018.7,0000.0,0008.03,0002.73,0001.54
2024-06-07 20:52:00,SystemResetWarning,0827.2,5.01,000.00,028.9,026.4,000.0,037.2,029.8,018.9,0000.0,0008.11,0002.79,0001.55
2024-06-07 20:53:00,SystemResetWarning,0827.1,5.01,000.00,028.5,025.4,000.0,037.2,029.3,019.5,0000.0,0008.44,0002.84,0001.56
2024-06-07 20:54:00,SystemResetWarning,0827.2,5.00,000.00,028.5,025.9,000.0,037.1,029.5,019.2,0000.0,0008.57,0002.85,0001.54
2024-06-07 20:55:00,SystemResetWarning,0827.1,5.00,000.00,028.5,026.4,000.0,037.0,029.8,019.7,0000.0,0008.59,0002.79,0001.52
2024-06-07 20:56:00,SystemResetWarning,0827.2,5.00,000.00,028.5,026.8,000.0,037.0,030.0,019.5,0000.0,0008.40,0002.78,0001.51
2024-06-07 20:57:00,SystemResetWarning,0827.1,5.00,000.00,028.6,027.2,000.0,037.0,030.2,019.6,0000.0,0008.23,0002.81,0001.51
2024-06-07 20:58:00,SystemResetWarning,0827.1,5.00,000.00,028.7,027.6,000.0,036.9,030.4,019.7,0000.0,0008.23,0002.82,0001.51
2024-06-07 20:59:00,SystemResetWarning,0827.1,5.00,000.00,028.8,027.9,000.0,036.9,030.5,020.0,0000.0,0008.56,0002.79,0001.51
